Hourly Data Report for October 12, 2014

All times are specified in Local Standard Time (LST). Add 1 hour to adjust for Daylight Saving Time where and when it is observed.

KUGAARUK CLIMATE
NUNAVUT

68°32'15.060" N
89°47'47.020" W
15.80 m
2303094
71407
NBB

Download Data

Hourly Data (October 2014)
Hourly Data Report for October 12, 2014
Temp Definition
°C
Dew Point Temp Definition
°C
Rel Hum Definition
%
Wind Dir Definition
10's deg

Wind Spd Definition
km/h
Visibility Definition
km
Stn Press Definition
kPa
Hmdx Definition


Wind Chill Definition


Weather Definition


TIME
00:00 -3.5 -4.4 93 3 14   100.02   -9 LegendNANA
01:00 -3.5 -4.2 94 2 16   100.03   -9 LegendNANA
02:00 -3.3 -4.2 94 2 17   100.06   -9 LegendNANA
03:00 -3.5 -4.3 94 4 10   100.07   -7 LegendNANA
04:00 -3.4 -4.3 94 6 5   100.08   -5 LegendNANA
05:00 -3.3 -4.2 93 3 12   100.10   -8 LegendNANA
06:00 -3.4 -4.1 95 1 15   100.10   -9 LegendNANA
07:00 -3.3 -4.0 95 7 6   100.13   -6 LegendNANA
08:00 -3.1 -4.0 93 3 12   100.14   -8 LegendNANA
09:00 -2.9 -4.3 90 10 6   100.15   -5 LegendNANA
10:00 -2.6 -4.6 86 13 7   100.15   -5 LegendNANA
11:00 -2.1 -4.3 85 17 2   100.17   -3 LegendNANA
12:00 -2.3 -4.4 86 27 5   100.16   -4 LegendNANA
13:00 -2.3 -4.2 87 31 7   100.16   -5 LegendNANA
14:00 -2.5 -4.3 87 31 7   100.16   -5 LegendNANA
15:00 -2.7 -4.1 89 27 5   100.15   -5 LegendNANA
16:00 -2.6 -3.9 91 29 9   100.15   -6 LegendNANA
17:00 -2.8 -4.0 92 29 13   100.12   -7 LegendNANA
18:00 -2.9 -3.9 93 27 21   100.07   -9 LegendNANA
19:00 -2.8 -3.9 92 27 14   100.04   -8 LegendNANA
20:00 -2.9 -3.9 93 27 17   100.01   -8 LegendNANA
21:00 -3.2 -3.9 95 28 24   99.95   -10 LegendNANA
22:00 -3.0 -3.6 96 27 24   99.90   -10 LegendNANA
23:00 -2.8 -3.4 96 28 23   99.91   -9 LegendNANA

Notes on Data Quality.

Legend

  • E = Estimated
  • M = Missing
  • NA = Not Available
  • ‡ = Partner data that is not subject to review by the National Climate Archives
Date modified: